TimeCST,TemperatureF,Dew PointF,Humidity,Sea Level PressureIn,VisibilityMPH,Wind Direction,Wind SpeedMPH,Gust SpeedMPH,PrecipitationIn,Events,Conditions,WindDirDegrees,DateUTC
12:00 AM,-30,,,29.43,,West,8.1,,,,,270,2014-01-12 06:00:00
12:00 AM,-29.2,-9999,N/A,29.43,-9999.0,West,6.9,-,N/A,,Partly Cloudy,270,2014-01-12 06:00:00
1:00 AM,-32.8,-9999,N/A,29.46,-9999.0,West,9.2,-,N/A,,Clear,270,2014-01-12 07:00:00
2:00 AM,-34.6,-9999,N/A,29.49,-9999.0,West,8.1,-,N/A,,Clear,270,2014-01-12 08:00:00
3:00 AM,-34,,,29.51,,WSW,5.8,,,,,250,2014-01-12 09:00:00
3:00 AM,-34.6,-9999,N/A,29.51,-9999.0,WSW,4.6,-,N/A,,Clear,240,2014-01-12 09:00:00
4:00 AM,-32.8,-9999,N/A,29.53,-9999.0,SW,10.4,-,N/A,,Clear,220,2014-01-12 10:00:00
5:00 AM,-36.4,-9999,N/A,29.55,-9999.0,South,9.2,-,N/A,,Clear,190,2014-01-12 11:00:00
6:00 AM,-39,,,29.57,,South,10.4,,,,,190,2014-01-12 12:00:00
6:00 AM,-38.2,-9999,N/A,29.57,-9999.0,South,11.5,-,N/A,,Clear,190,2014-01-12 12:00:00
6:08 AM,-38.2,-9999,N/A,29.54,-9999.0,SSW,12.7,-,N/A,,Clear,200,2014-01-12 12:08:00
6:09 AM,-38.2,-9999,N/A,29.54,-9999.0,SSW,12.7,-,N/A,,Clear,200,2014-01-12 12:09:00
6:32 AM,-38.2,-9999,N/A,29.55,-9999.0,SSE,5.8,-,N/A,,Clear,160,2014-01-12 12:32:00
6:36 AM,-40.0,-9999,N/A,29.55,-9999.0,South,8.1,-,N/A,,Clear,180,2014-01-12 12:36:00
7:00 AM,-40.0,-9999,N/A,29.58,-9999.0,SSE,6.9,-,N/A,,Clear,160,2014-01-12 13:00:00
7:20 AM,-38.2,-9999,N/A,29.56,-9999.0,South,11.5,-,N/A,,Clear,190,2014-01-12 13:20:00
7:34 AM,-40.0,-9999,N/A,29.56,-9999.0,SSE,8.1,-,N/A,,Clear,160,2014-01-12 13:34:00
7:35 AM,-40.0,-9999,N/A,29.56,-9999.0,SSE,6.9,-,N/A,,Clear,150,2014-01-12 13:35:00
7:36 AM,-40.0,-9999,N/A,29.56,-9999.0,SSE,6.9,-,N/A,,Clear,150,2014-01-12 13:36:00
8:00 AM,-38.2,-9999,N/A,29.60,-9999.0,South,9.2,-,N/A,,Clear,180,2014-01-12 14:00:00
8:58 AM,-43.6,-9999,N/A,29.60,-9999.0,SSE,9.2,-,N/A,,Clear,150,2014-01-12 14:58:00
8:59 AM,-43.6,-9999,N/A,29.59,-9999.0,SSE,9.2,-,N/A,,Clear,160,2014-01-12 14:59:00
9:00 AM,-44,,,29.63,,SE,9.2,,,,,140,2014-01-12 15:00:00
9:00 AM,-43.6,-9999,N/A,29.63,-9999.0,SSE,9.2,-,N/A,,Clear,160,2014-01-12 15:00:00
9:19 AM,-43.6,-9999,N/A,29.60,-9999.0,SE,9.2,-,N/A,,Clear,140,2014-01-12 15:19:00
9:25 AM,-43.6,-9999,N/A,29.60,-9999.0,SE,9.2,-,N/A,,Clear,140,2014-01-12 15:25:00
9:30 AM,-43.6,-9999,N/A,29.60,-9999.0,SSE,8.1,-,N/A,,Clear,150,2014-01-12 15:30:00
9:32 AM,-43.6,-9999,N/A,29.60,-9999.0,SSE,9.2,-,N/A,,Clear,150,2014-01-12 15:32:00
9:33 AM,-43.6,-9999,N/A,29.60,-9999.0,SSE,9.2,-,N/A,,Clear,150,2014-01-12 15:33:00
9:40 AM,-43.6,-9999,N/A,29.60,-9999.0,SSE,8.1,-,N/A,,Clear,160,2014-01-12 15:40:00
9:43 AM,-43.6,-9999,N/A,29.61,-9999.0,SSE,8.1,-,N/A,,Clear,150,2014-01-12 15:43:00
9:48 AM,-43.6,-9999,N/A,29.61,-9999.0,South,10.4,-,N/A,,Clear,180,2014-01-12 15:48:00
10:00 AM,-43.6,-9999,N/A,29.64,-9999.0,South,9.2,-,N/A,,Clear,170,2014-01-12 16:00:00
10:13 AM,-43.6,-9999,N/A,29.61,-9999.0,SSE,8.1,-,N/A,,Clear,160,2014-01-12 16:13:00
10:24 AM,-43.6,-9999,N/A,29.61,-9999.0,SSE,9.2,-,N/A,,Clear,150,2014-01-12 16:24:00
11:00 AM,-43.6,-9999,N/A,29.65,-9999.0,SSE,10.4,-,N/A,,Clear,150,2014-01-12 17:00:00
12:00 PM,-44,,,29.67,,SSE,9.2,,,,,150,2014-01-12 18:00:00
12:00 PM,-43.6,-9999,N/A,29.67,-9999.0,SE,9.2,-,N/A,,Clear,140,2014-01-12 18:00:00
1:00 PM,-41.8,-9999,N/A,29.68,-9999.0,SSE,10.4,-,N/A,,Clear,160,2014-01-12 19:00:00
2:00 PM,-43.6,-9999,N/A,29.69,-9999.0,SE,10.4,-,N/A,,Clear,140,2014-01-12 20:00:00
3:00 PM,-43,,,29.72,,SE,9.2,,,,,140,2014-01-12 21:00:00
3:00 PM,-43.6,-9999,N/A,29.72,-9999.0,SSE,9.2,-,N/A,,Clear,150,2014-01-12 21:00:00
4:00 PM,-41.8,-9999,N/A,29.73,-9999.0,SE,9.2,-,N/A,,Clear,130,2014-01-12 22:00:00
5:00 PM,-41.8,-9999,N/A,29.74,-9999.0,SE,11.5,-,N/A,,Clear,140,2014-01-12 23:00:00
6:00 PM,-42,,,29.74,,SE,11.5,,,,,130,2014-01-13 00:00:00
6:00 PM,-41.8,-9999,N/A,29.74,-9999.0,SE,11.5,-,N/A,,Clear,130,2014-01-13 00:00:00
7:00 PM,-40.0,-9999,N/A,29.74,-9999.0,SSE,12.7,-,N/A,,Clear,150,2014-01-13 01:00:00
8:00 PM,-41.8,-9999,N/A,29.75,-9999.0,ESE,11.5,-,N/A,,Clear,120,2014-01-13 02:00:00
9:00 PM,-41,,,29.75,,ESE,10.4,,,,,120,2014-01-13 03:00:00
9:00 PM,-40.0,-9999,N/A,29.75,-9999.0,ESE,10.4,-,N/A,,Clear,120,2014-01-13 03:00:00
10:00 PM,-40.0,-9999,N/A,29.75,-9999.0,ESE,11.5,-,N/A,,Clear,120,2014-01-13 04:00:00
11:00 PM,-40.0,-9999,N/A,29.75,-9999.0,SE,10.4,-,N/A,,Clear,140,2014-01-13 05:00:00